{"data":{"norad_id":63456,"epoch":"2026-05-24T17:27:46.280736Z","epoch_age_seconds":102518,"freshness":"FRESH","line1":"1 63456U 25069Z   26144.72761899  .00025596  00000+0  59533-3 0  9996","line2":"2 63456  53.1597 146.6281 0001302  80.6312 279.4841 15.42177499 64970","mean_motion":15.42177499,"eccentricity":0.0001302,"inclination_deg":53.1597,"raan_deg":146.6281,"arg_perigee_deg":80.6312,"mean_anomaly_deg":279.4841,"bstar":0.00059533,"rev_number":6497,"period_min":93.374465710578,"perigee_km":438.79639862053,"apogee_km":440.57175922948,"semimajor_km":6817.821078925,"source":"CELESTRAK","updated_at":"2026-05-25T13:38:20.003112Z"}}